Location: Cuzcurrita-R�o Tir�n
(42.5415°N, 2.9642°W)
Time: 08:35:46
(UTC+00:00)

ARGOS - Visible Passes

Search period start: 10 May 2021 00:00
Search period end: 20 May 2021 00:00
Orbit: 819 x 835 km, 98.4° (Epoch: 09 May)

Date Brightness Start Highest point End Pass type
(mag) Time Alt. Az. Time Alt. Az. Time Alt. Az.
10 May 5.4 20:08:39 10° SW 20:12:54 24° W 20:17:11 10° NW visible
11 May 4.9 19:49:17 10° SSW 19:54:07 34° W 19:58:59 10° NNW visible
14 May 5.9 20:36:18 10° WSW 20:38:54 14° W 20:41:32 10° WNW visible
15 May 5.7 20:16:09 10° SW 20:20:02 20° W 20:23:58 10° NW visible
16 May 5.1 19:56:37 10° SSW 20:01:14 29° W 20:05:54 10° NW visible
19 May 6.0 20:44:27 10° WSW 20:46:05 11° W 20:47:43 10° WNW visible
